Temp
8 8 7 7 9 9 10 11 11 12 12 11 11 12 13 12 13 14 13 14 14 14 15 15 15 15 15 15 15 15 16 16 16 15 15 15 14 15 15 15 15 16 15
8 8 8 7 8 10 9 10 10 11 12 12 12 13 13 12 12 13 13 14 14 14 14 14 14 15 15 15 15 15 15 15 16 15 15 15 15 15 15 15 15 15 16
8 6 7 6 7 9 8 10 9 11 12 12 12 13 13 13 12 12 12 12 13 14 15 15 15 16 14 14 14 14 15 15 15 15 14 14 14 14 14 15 15 15 15
7 6 7 6 7 9 9 10 9 11 12 12 12 13 13 12 13 12 12 12 12 13 14 15 15 16 16 16 14 15 15 15 15 15 14 14 14 14 14 14 15 15 15
6 6 7 7 7 9 10 9 10 12 11 12 12 12 12 12 12 12 12 12 13 13 13 14 15 15 15 15 16 14 15 15 15 15 14 14 14 14 14 14 15 15 15
6 6 7 8 9 9 8 8 9 10 11 11 12 12 12 12 12 12 12 12 12 12 13 14 15 14 14 14 15 15 15 14 15 15 14 13 14 14 14 14 14 15 15
6 6 7 7 7 7 7 8 9 10 11 12 12 12 12 12 12 12 12 12 12 12 12 13 13 14 14 15 15 15 14 14 14 14 14 13 13 13 14 14 14 14 15
5 5 6 4 6 6 7 8 9 9 10 10 11 11 11 11 11 11 11 12 12 12 12 12 12 13 13 14 15 15 14 14 14 14 14 13 13 13 14 14 14 14 14
5 5 5 6 6 6 6 6 7 8 8 9 9 10 10 9 10 11 11 11 12 12 12 12 13 13 13 13 13 14 14 14 14 14 13 13 13 13 13 13 14 14 14
4 4 4 4 5 5 6 6 6 6 7 7 8 8 9 9 9 9 10 11 11 11 12 12 12 13 13 13 13 13 13 13 13 13 13 13 13 13 13 13 13 13 13
3 3 4 4 4 5 5 6 6 6 6 7 7 7 8 8 9 9 9 9 10 10 10 11 11 12 12 12 12 12 12 12 12 12 12 13 13 13 13 13 13 13 13
3 3 3 4 4 5 5 5 5 5 6 6 6 7 7 8 8 8 8 8 8 9 9 9 9 10 11 11 12 12 12 12 12 12 11 12 13 13 13 13 12 13 13
4 3 3 3 4 4 4 4 4 4 4 5 5 5 5 5 6 6 7 7 7 8 8 8 9 9 9 10 10 11 11 11 11 11 11 11 11 12 12 12 12 12 13
3 3 3 3 3 3 3 3 3 3 4 4 4 4 4 4 5 5 5 6 6 6 6 7 7 7 7 8 9 9 10 10 11 11 11 10 10 11 11 12 12 12 12
3 3 3 3 3 3 3 3 3 3 3 3 4 4 4 4 3 3 3 4 4 5 4 4 4 5 6 6 7 7 8 9 9 10 11 10 10 10 10 11 12 12 12
1 2 2 2 2 2 3 3 3 3 4 3 3 3 2 2 1 1 1 2 2 3 3 3 3 4 4 4 5 5 6 7 7 8 9 9 10 10 10 10 11 11 12
1 2 1 1 2 2 2 3 3 3 3 2 2 2 1 1 1 0 -0 -1 -1 -1 -1 -0 1 2 3 3 4 4 5 5 6 6 7 8 9 9 9 10 10 11 11
1 1 1 1 1 1 2 2 2 1 1 1 1 1 1 0 -0 -1 -1 -1 -1 -1 -1 -1 -1 -0 0 1 3 3 4 4 4 5 5 6 7 7 8 8 9 10 10
1 1 0 1 1 1 1 1 1 1 1 1 1 0 0 -0 -1 -1 -1 -2 -2 -2 -2 -2 -2 -2 -1 -1 -0 1 2 3 3 4 4 4 4 5 6 6 7 8 9
0 -0 0 -0 -0 -0 0 0 0 0 0 -0 -1 -1 -1 -2 -2 -3 -3 -3 -3 -3 -3 -3 -3 -3 -3 -3 -3 -1 0 0 1 1 2 2 2 2 3 3 4 5 6
-1 -1 -1 -1 -1 -0 -0 -0 -0 -1 -1 -2 -2 -2 -3 -3 -4 -4 -4 -4 -3 -3 -3 -4 -4 -4 -4 -4 -3 -2 -2 -2 -1 -1 -1 0 1 0 1 1 1 2 3
-0 -1 -1 -1 -1 -1 -1 -2 -2 -2 -2 -3 -3 -3 -4 -4 -5 -5 -4 -4 -4 -4 -4 -4 -5 -4 -5 -5 -6 -5 -5 -4 -4 -2 -1 -1 -0 -0 0 -0 -0 0 1
-1 -1 -1 -2 -2 -2 -3 -3 -3 -3 -3 -3 -4 -4 -5 -5 -5 -6 -6 -5 -5 -5 -5 -5 -5 -5 -5 -5 -6 -7 -6 -8 -8 -5 -4 -3 -2 -1 -1 -0 -0 -0 0
-1 -2 -2 -2 -2 -3 -3 -3 -3 -3 -3 -4 -4 -5 -6 -6 -6 -7 -7 -7 -7 -7 -7 -7 -7 -7 -7 -6 -7 -8 -9 -10 -9 -9 -7 -4 -3 -3 -2 -2 -2 -1 -1
-2 -2 -3 -3 -4 -4 -4 -4 -4 -4 -4 -4 -5 -5 -6 -7 -7 -7 -8 -8 -8 -8 -8 -8 -8 -9 -9 -8 -8 -8 -9 -9 -9 -10 -10 -7 -3 -4 -4 -4 -3 -2 -2
-2 -3 -4 -4 -4 -4 -4 -4 -4 -4 -5 -5 -6 -6 -7 -7 -7 -8 -8 -8 -8 -9 -9 -9 -9 -9 -9 -9 -9 -8 -9 -10 -10 -11 -11 -10 -9 -2 -4 -4 -5 -4 -3
Height
1528 1532 1533 1535 1535 1535 1535 1534 1535 1537 1537 1538 1536 1535 1537 1537 1536 1536 1536 1536 1536 1537 1537 1537 1539 1537 1538 1538 1538 1539 1538 1539 1540 1540 1541 1541 1542 1543 1544 1545 1545 1546 1547
1526 1530 1530 1534 1534 1534 1535 1535 1535 1535 1536 1537 1535 1535 1536 1536 1536 1537 1537 1536 1536 1536 1535 1535 1537 1538 1537 1538 1538 1538 1539 1539 1541 1541 1541 1542 1543 1544 1544 1545 1546 1547 1547
1524 1528 1530 1532 1533 1533 1534 1533 1533 1533 1535 1533 1534 1533 1534 1534 1534 1535 1536 1537 1537 1536 1535 1534 1535 1535 1535 1536 1538 1538 1540 1540 1541 1543 1542 1542 1543 1544 1545 1545 1546 1547 1547
1524 1527 1529 1530 1532 1532 1533 1532 1532 1532 1533 1532 1531 1531 1533 1533 1534 1534 1534 1535 1536 1535 1536 1535 1535 1536 1535 1535 1536 1536 1538 1539 1540 1542 1543 1543 1543 1544 1545 1545 1546 1547 1548
1522 1526 1527 1529 1530 1530 1531 1532 1532 1532 1532 1532 1530 1529 1529 1531 1533 1533 1534 1534 1535 1535 1534 1534 1534 1535 1536 1536 1534 1533 1536 1540 1541 1542 1542 1544 1544 1544 1545 1545 1546 1547 1548
1521 1524 1526 1527 1528 1529 1530 1531 1531 1530 1531 1530 1529 1529 1529 1528 1530 1531 1533 1533 1534 1534 1533 1533 1533 1534 1535 1534 1534 1534 1536 1539 1540 1541 1542 1543 1543 1544 1546 1546 1546 1547 1548
1520 1523 1524 1526 1526 1528 1529 1530 1529 1528 1528 1528 1527 1528 1528 1528 1529 1528 1530 1530 1532 1531 1531 1531 1532 1532 1533 1532 1533 1534 1535 1537 1539 1540 1541 1543 1543 1543 1545 1547 1547 1547 1548
1520 1521 1522 1523 1525 1526 1527 1527 1527 1526 1527 1527 1527 1527 1527 1527 1527 1528 1527 1527 1529 1528 1528 1528 1530 1530 1529 1530 1532 1533 1534 1535 1537 1539 1540 1541 1543 1544 1545 1546 1547 1547 1548
1519 1521 1522 1523 1523 1524 1525 1525 1526 1526 1527 1527 1526 1526 1527 1527 1527 1525 1524 1526 1525 1525 1527 1526 1527 1528 1528 1529 1530 1531 1532 1533 1535 1537 1538 1539 1541 1542 1543 1545 1546 1546 1546
1516 1519 1521 1522 1523 1523 1524 1525 1526 1526 1526 1526 1525 1526 1526 1524 1524 1524 1525 1522 1521 1523 1523 1523 1524 1525 1525 1526 1528 1528 1530 1531 1532 1534 1535 1535 1537 1540 1540 1541 1543 1545 1546
1514 1516 1518 1520 1521 1522 1524 1525 1525 1526 1526 1525 1525 1525 1524 1524 1522 1522 1522 1520 1521 1518 1519 1520 1521 1522 1523 1523 1524 1525 1526 1527 1528 1531 1531 1531 1534 1535 1536 1537 1540 1542 1543
1511 1514 1516 1518 1520 1521 1522 1523 1523 1524 1524 1524 1524 1523 1523 1522 1521 1520 1520 1519 1518 1517 1517 1517 1517 1518 1519 1518 1520 1522 1522 1523 1524 1526 1527 1528 1530 1531 1534 1535 1537 1538 1540
1508 1511 1513 1515 1517 1519 1520 1520 1521 1521 1522 1522 1522 1521 1521 1521 1519 1519 1518 1516 1516 1516 1514 1514 1513 1513 1514 1514 1515 1517 1518 1520 1521 1521 1522 1524 1526 1529 1531 1532 1533 1534 1536
1503 1507 1510 1512 1514 1516 1517 1518 1519 1519 1520 1520 1520 1520 1519 1518 1517 1516 1515 1514 1512 1511 1511 1511 1511 1513 1511 1511 1510 1512 1512 1515 1516 1517 1518 1521 1522 1524 1526 1528 1530 1531 1532
1498 1502 1507 1509 1512 1514 1515 1516 1517 1517 1517 1516 1516 1517 1516 1515 1515 1513 1512 1511 1510 1508 1507 1510 1511 1508 1508 1507 1507 1509 1507 1509 1513 1513 1512 1516 1517 1518 1520 1524 1526 1527 1530
1498 1500 1504 1507 1510 1511 1513 1514 1515 1515 1515 1515 1514 1514 1513 1512 1511 1510 1508 1507 1507 1507 1509 1510 1506 1504 1505 1504 1505 1504 1504 1506 1507 1507 1507 1511 1512 1512 1514 1518 1519 1522 1525
1497 1500 1502 1505 1508 1510 1511 1512 1512 1512 1513 1513 1512 1512 1511 1510 1509 1507 1506 1505 1505 1505 1504 1502 1502 1504 1503 1501 1500 1498 1499 1501 1502 1502 1503 1505 1506 1507 1509 1509 1511 1514 1517
1493 1498 1501 1503 1505 1507 1508 1509 1509 1510 1510 1510 1510 1510 1509 1508 1508 1507 1506 1505 1505 1503 1501 1501 1500 1499 1497 1496 1496 1496 1499 1499 1498 1498 1500 1501 1500 1501 1503 1502 1504 1507 1509
1488 1493 1498 1501 1502 1504 1504 1506 1508 1509 1509 1509 1508 1507 1507 1506 1506 1506 1504 1503 1502 1501 1500 1499 1497 1494 1492 1491 1491 1493 1494 1493 1494 1494 1494 1493 1492 1495 1497 1498 1498 1500 1501
1485 1489 1494 1498 1500 1502 1503 1503 1505 1507 1507 1507 1506 1505 1505 1505 1505 1504 1503 1502 1502 1501 1500 1497 1494 1491 1489 1486 1486 1488 1490 1490 1491 1491 1489 1490 1489 1492 1493 1492 1492 1494 1495
1481 1485 1490 1493 1496 1500 1502 1502 1503 1503 1504 1505 1504 1504 1503 1503 1503 1502 1502 1501 1500 1498 1496 1494 1491 1490 1488 1485 1483 1483 1485 1485 1485 1486 1488 1487 1488 1489 1488 1488 1490 1489 1490
1475 1480 1486 1490 1493 1496 1499 1500 1501 1502 1502 1503 1503 1503 1502 1501 1501 1501 1500 1499 1498 1496 1496 1494 1492 1490 1489 1487 1484 1483 1481 1484 1485 1486 1484 1484 1485 1485 1487 1486 1487 1487 1486
1469 1475 1480 1486 1490 1493 1495 1497 1498 1499 1500 1500 1501 1501 1500 1499 1499 1498 1497 1497 1495 1495 1494 1493 1492 1489 1488 1487 1485 1486 1483 1482 1478 1476 1480 1481 1482 1483 1482 1482 1481 1482 1481
1466 1473 1478 1483 1487 1490 1493 1494 1495 1496 1497 1497 1498 1498 1498 1497 1496 1495 1495 1494 1493 1492 1491 1491 1490 1488 1487 1486 1486 1487 1487 1487 1484 1475 1473 1474 1473 1474 1474 1476 1477 1479 1477
1465 1471 1477 1482 1485 1488 1490 1492 1493 1494 1495 1495 1495 1495 1495 1494 1493 1492 1491 1491 1491 1490 1489 1488 1488 1487 1486 1486 1484 1482 1483 1482 1482 1481 1472 1469 1469 1470 1469 1468 1469 1471 1473
1465 1469 1474 1479 1483 1486 1488 1489 1490 1491 1492 1491 1491 1492 1492 1491 1491 1489 1488 1487 1487 1486 1486 1485 1485 1484 1483 1481 1480 1479 1479 1479 1479 1477 1471 1466 1462 1459 1461 1461 1463 1465 1466
Wind_Speed
25 16 12 7 8 7 6 6 6 5 5 6 5 3 5 10 12 12 13 15 15 14 11 8 7 7 5 4 5 5 8 9 10 11 11 10 9 7 7 7 7 7 5
25 19 17 9 12 13 9 8 4 4 5 6 4 3 3 3 6 8 9 10 10 12 14 12 9 5 6 6 4 3 5 8 8 8 10 10 7 6 4 5 5 5 5
24 19 18 11 9 12 8 7 5 3 3 4 5 4 1 2 3 5 3 5 6 6 7 8 9 9 8 5 5 2 1 4 7 6 9 10 7 7 7 5 4 4 4
23 19 15 14 13 12 10 6 4 3 2 1 2 2 3 3 2 2 4 5 4 4 5 5 5 5 7 6 6 6 9 3 5 6 5 4 4 4 5 4 3 3 3
23 19 14 12 12 11 9 6 5 4 2 2 1 2 5 1 2 4 4 4 5 5 6 6 6 6 6 7 9 10 8 6 4 5 7 3 2 4 3 3 2 1 3
22 19 14 12 11 10 9 7 5 5 3 2 4 3 4 5 3 2 3 6 6 6 7 8 9 9 8 10 10 9 3 5 6 5 7 5 3 3 1 2 1 1 1
21 19 15 12 12 11 9 7 6 6 6 7 7 5 6 6 6 5 5 5 5 6 7 7 10 12 13 12 12 10 6 7 6 5 7 7 4 3 5 8 6 4 3
19 19 17 14 11 11 10 9 7 6 5 4 7 6 4 8 8 6 7 8 8 8 8 9 10 11 14 15 16 13 12 11 8 7 7 11 6 5 5 7 7 8 7
19 18 16 13 13 12 9 8 6 5 4 3 2 3 3 2 4 10 10 7 9 10 11 11 12 12 12 14 15 15 14 13 11 9 10 11 9 6 5 9 8 8 9
18 17 15 14 13 11 9 8 6 3 1 1 1 2 3 4 5 5 6 11 10 10 12 12 13 13 13 15 16 16 16 15 14 13 13 14 15 12 8 8 8 9 11
20 18 16 15 14 12 10 7 5 4 3 1 1 2 3 4 5 5 6 6 10 11 11 11 13 15 16 17 17 17 17 18 17 16 17 17 17 18 15 10 10 9 10
22 19 17 15 13 10 8 6 4 3 2 2 1 1 2 3 4 6 6 5 6 8 10 10 10 12 14 16 17 19 19 19 19 18 20 21 20 20 20 17 13 13 9
23 21 19 16 13 10 7 5 3 2 1 1 1 1 1 2 2 3 5 6 5 5 6 8 10 10 11 13 15 17 19 20 20 19 19 23 23 24 23 21 20 15 15
27 24 21 18 14 12 9 5 3 2 2 2 2 2 3 4 4 4 5 6 7 7 7 7 8 9 10 11 13 15 18 20 21 22 21 21 24 26 26 24 21 21 17
28 25 22 19 15 11 8 5 3 3 4 5 5 6 6 6 6 7 7 6 6 8 9 9 9 9 9 10 12 14 15 18 20 22 23 24 25 25 27 29 28 23 24
27 25 22 19 16 14 11 9 7 6 6 6 6 7 8 9 10 10 10 10 10 9 9 9 10 11 12 11 11 12 14 15 16 18 21 24 26 28 27 27 31 32 29
28 25 23 20 17 14 12 10 8 7 5 5 6 8 9 10 11 11 12 13 13 13 14 15 14 12 12 13 13 14 13 13 15 17 18 21 23 25 28 30 30 30 36
29 27 24 21 18 15 12 10 7 5 4 4 6 8 8 9 10 10 12 13 14 15 16 16 17 17 17 17 16 15 13 13 15 15 16 17 19 21 23 26 29 32 32
30 28 26 22 19 16 12 9 7 6 5 5 6 7 8 8 8 10 12 13 14 15 16 17 17 19 20 21 21 19 16 15 12 10 11 12 14 15 18 21 24 26 32
29 27 25 22 19 16 13 11 8 6 5 5 6 7 7 7 8 10 12 12 13 13 15 16 18 18 21 23 23 21 16 8 8 11 10 10 11 11 13 17 20 23 23
30 29 27 25 21 18 14 12 9 6 5 5 6 6 6 7 10 11 11 12 12 12 14 16 17 18 19 22 23 24 13 11 8 1 7 11 12 13 15 16 19 22 22
34 31 28 25 21 18 14 10 8 6 5 5 6 6 7 9 11 12 11 11 11 11 11 13 15 16 17 20 21 19 10 6 5 14 10 8 10 17 18 19 22 23 26
37 33 30 26 22 17 14 11 7 5 5 5 6 7 9 10 11 11 11 10 11 12 12 12 13 14 15 16 17 12 9 6 31 2 22 16 21 17 16 21 25 25 27
37 32 29 26 22 18 14 10 8 6 6 7 7 8 9 10 10 10 10 11 12 12 12 12 13 13 14 14 14 12 10 13 8 15 21 34 26 28 24 22 22 25 27
36 32 29 25 21 17 13 10 8 7 7 8 9 10 10 10 9 10 10 11 12 13 13 14 14 14 14 14 14 16 17 18 18 17 24 32 31 29 31 31 30 27 24
34 31 29 25 21 17 14 10 8 8 9 10 10 11 11 11 11 10 11 12 12 13 13 14 15 15 15 15 15 15 16 17 21 20 27 32 34 34 35 36 35 33 28
Wind_Direction
178 179 144 150 203 189 223 226 224 198 183 165 174 169 128 123 120 113 107 104 98 94 98 126 146 160 171 142 113 94 94 72 68 78 89 101 93 85 76 70 66 79 87
177 184 169 142 196 213 227 238 240 191 181 188 212 242 238 135 125 143 137 129 131 129 127 123 132 148 184 175 136 116 86 84 69 83 100 101 105 78 46 15 25 53 70
176 177 182 157 172 201 195 193 122 139 186 149 140 142 142 249 218 158 153 172 170 161 155 153 161 170 141 124 178 127 102 79 80 96 114 110 105 83 51 30 356 5 53
176 176 176 178 179 182 173 166 137 164 177 217 263 242 151 141 170 222 205 204 188 187 191 190 193 181 165 165 146 215 235 230 127 131 129 99 97 119 66 36 18 15 21
174 175 176 169 156 172 171 143 151 203 193 215 284 320 305 302 175 155 171 207 226 216 209 196 183 193 194 195 193 201 206 208 163 156 155 148 97 101 62 56 62 44 41
174 177 176 169 165 162 145 139 155 181 215 250 243 253 265 286 294 264 195 174 185 209 223 219 206 208 207 211 223 234 227 204 183 172 177 170 145 111 355 346 302 240 115
174 177 172 169 161 157 152 154 163 193 213 232 257 248 264 265 271 269 258 245 220 204 210 214 222 215 212 218 227 236 230 231 210 192 182 194 197 174 282 287 288 272 231
181 176 175 161 162 159 160 168 177 198 205 220 246 265 266 267 278 261 261 259 251 242 229 223 226 225 227 226 231 230 236 236 228 211 196 202 192 238 242 280 287 274 254
184 182 178 180 177 165 161 161 167 176 167 165 199 265 280 310 277 284 287 267 259 256 255 244 237 233 233 238 240 241 236 243 235 223 218 214 207 226 217 271 291 285 269
190 187 186 184 179 179 176 174 164 151 125 126 185 238 256 275 285 279 268 282 284 269 263 260 254 247 240 239 241 241 243 244 241 225 219 219 212 213 204 227 250 283 286
191 188 187 189 187 188 187 191 190 185 174 194 264 286 302 297 297 295 292 283 276 281 276 267 257 248 243 243 242 241 240 241 240 238 229 223 216 217 225 219 230 243 262
193 190 190 193 195 197 196 194 198 206 200 217 220 265 280 293 298 303 305 305 295 286 284 282 273 262 254 246 247 243 242 242 240 238 237 236 228 225 228 233 238 231 238
193 194 192 194 196 200 202 198 203 218 225 240 326 343 3 351 326 302 303 306 298 276 279 282 280 275 265 253 253 249 244 246 246 242 238 236 237 234 231 234 236 237 232
195 195 192 192 191 192 195 198 210 255 280 307 314 347 349 345 336 318 317 313 312 313 303 288 278 274 273 266 258 255 249 250 251 249 248 245 240 239 239 236 238 236 239
197 196 193 193 193 193 196 211 234 269 299 313 313 319 335 337 340 343 339 333 326 325 323 314 302 292 276 270 270 266 258 254 256 256 252 250 248 245 242 241 237 238 236
201 197 193 191 190 191 197 206 218 235 258 283 301 318 337 339 348 348 347 344 339 333 321 314 317 315 310 301 283 275 273 271 267 264 258 255 254 251 248 247 242 238 238
205 201 195 191 192 194 200 207 215 228 246 275 301 318 333 333 341 346 349 350 349 348 343 338 330 316 308 305 304 300 297 291 279 272 268 264 258 257 257 250 245 243 240
207 202 197 194 194 196 200 204 211 226 253 282 303 314 319 325 333 340 339 338 339 336 335 333 330 331 330 321 317 313 310 301 293 287 278 275 269 263 260 259 254 248 245
206 203 200 198 197 197 197 202 213 231 256 277 294 301 304 313 322 328 332 333 333 333 331 330 331 332 332 328 330 330 330 319 306 292 291 287 278 272 268 267 264 256 247
205 204 202 197 195 196 199 203 210 229 253 275 284 285 294 305 316 326 327 326 328 328 327 327 331 336 336 334 334 337 340 322 307 307 301 292 288 287 275 271 271 264 257
204 202 201 198 196 200 203 203 207 222 251 269 272 280 287 301 313 316 316 318 321 325 329 332 330 333 334 335 332 335 344 330 314 306 330 295 295 295 289 282 276 277 272
207 203 201 200 200 200 201 202 207 214 232 249 262 271 282 297 304 304 308 313 318 322 322 325 327 330 335 341 345 344 345 341 204 308 302 285 295 290 294 293 286 281 279
206 204 203 202 200 200 202 206 214 229 253 267 271 273 281 286 289 297 305 310 316 318 320 321 322 326 326 331 342 355 347 331 324 305 304 314 319 305 294 287 292 295 285
206 207 205 202 202 203 206 212 225 242 256 267 268 270 275 281 288 294 298 305 308 310 313 314 316 318 318 318 324 323 317 307 323 316 303 315 320 320 316 308 300 295 295
205 203 203 202 203 207 210 218 234 256 276 280 278 276 277 278 281 285 290 294 295 297 299 299 300 301 301 300 302 306 306 305 300 292 303 312 312 315 316 314 312 308 300
201 200 200 202 206 211 217 229 250 270 280 279 275 276 277 278 280 279 282 288 289 290 291 290 292 293 293 292 293 292 295 297 294 298 298 307 311 310 312 312 311 310 307